| time (UTC) | temp C | wind direction | speed KPH | gust KPH | rain 1hr cm | rain 24hr cm | rain mn cm | humidity % | barometer mb |
| 20260507185012 | 15 | 0 | 0.0 | 0.0 | 0.00 | 0.00 | 0.00 | 56 | 1015.0 |
| 20260507183506 | 15 | 0 | 0.0 | 0.0 | 0.00 | 0.00 | 0.00 | 56 | 1015.0 |
| 20260507182001 | 16 | 0 | 0.0 | 0.0 | 0.00 | 0.00 | 0.00 | 52 | 1015.0 |
| 20260507180456 | 18 | 0 | 1.6 | 0.0 | 0.00 | 0.00 | 0.00 | 46 | 1015.0 |
| 20260507174951 | 17 | 0 | 0.0 | 0.0 | 0.00 | 0.00 | 0.00 | 44 | 1015.0 |
| 20260507173445 | 20 | 0 | 1.6 | 0.0 | 0.00 | 0.00 | 0.00 | 38 | 1015.0 |
| 20260507171940 | 25 | 0 | 0.0 | 0.0 | 0.00 | 0.00 | 0.00 | 30 | 1015.0 |
| 20260507170435 | 25 | 0 | 0.0 | 0.0 | 0.00 | 0.00 | 0.00 | 28 | 1015.0 |
| 20260507164930 | 26 | 0 | 6.4 | 0.0 | 0.00 | 0.00 | 0.00 | 27 | 1015.0 |
| 20260507163424 | 23 | 0 | 3.2 | 0.0 | 0.00 | 0.00 | 0.00 | 32 | 1015.0 |
| 20260507161919 | 25 | 0 | 3.2 | 0.0 | 0.00 | 0.00 | 0.00 | 28 | 1015.0 |
| 20260507160414 | 23 | 0 | 1.6 | 0.0 | 0.00 | 0.00 | 0.00 | 34 | 1015.0 |
| 20260507154909 | 22 | 0 | 4.8 | 0.0 | 0.00 | 0.00 | 0.00 | 35 | 1015.0 |
| 20260507153404 | 27 | 0 | 1.6 | 0.0 | 0.00 | 0.00 | 0.00 | 28 | 1015.0 |
| 20260507151858 | 24 | 0 | 1.6 | 0.0 | 0.00 | 0.00 | 0.00 | 32 | 1015.0 |
| 20260507150353 | 23 | 0 | 3.2 | 0.0 | 0.00 | 0.00 | 0.00 | 35 | 1015.0 |
| 20260507144848 | 18 | 0 | 11.3 | 0.0 | 0.00 | 0.00 | 0.00 | 45 | 1015.0 |
| 20260507143343 | 20 | 0 | 11.3 | 0.0 | 0.00 | 0.00 | 0.00 | 42 | 1015.0 |
| 20260507141837 | 18 | 0 | 1.6 | 0.0 | 0.00 | 0.00 | 0.00 | 44 | 1015.0 |
| 20260507140332 | 18 | 0 | 4.8 | 0.0 | 0.00 | 0.00 | 0.00 | 45 | 1015.0 |
| 20260507134827 | 18 | 0 | 0.0 | 0.0 | 0.00 | 0.00 | 0.00 | 48 | 1015.0 |
| 20260507133322 | 17 | 0 | 6.4 | 0.0 | 0.00 | 0.00 | 0.00 | 51 | 1015.0 |
| 20260507131816 | 17 | 0 | 3.2 | 0.0 | 0.00 | 0.00 | 0.00 | 52 | 1015.0 |
| 20260507130311 | 17 | 0 | 1.6 | 0.0 | 0.00 | 0.00 | 0.00 | 53 | 1015.0 |
| 20260507124806 | 16 | 0 | 0.0 | 0.0 | 0.00 | 0.00 | 0.00 | 56 | 1016.0 |
| 20260507123301 | 15 | 0 | 0.0 | 0.0 | 0.00 | 0.00 | 0.00 | 57 | 1016.0 |
| 20260507121755 | 15 | 0 | 1.6 | 0.0 | 0.00 | 0.00 | 0.00 | 55 | 1016.0 |
| 20260507120250 | 16 | 0 | 0.0 | 0.0 | 0.00 | 0.00 | 0.00 | 59 | 1016.0 |
| 20260507114745 | 15 | 0 | 3.2 | 0.0 | 0.00 | 0.00 | 0.00 | 61 | 1016.0 |
| 20260507113240 | 15 | 0 | 3.2 | 0.0 | 0.00 | 0.00 | 0.00 | 66 | 1016.0 |
| 20260507111735 | 15 | 0 | 0.0 | 0.0 | 0.00 | 0.00 | 0.00 | 69 | 1016.0 |
| 20260507110229 | 15 | 0 | 1.6 | 0.0 | 0.00 | 0.00 | 0.00 | 70 | 1016.0 |
| 20260507104724 | 14 | 0 | 0.0 | 0.0 | 0.00 | 0.00 | 0.00 | 72 | 1016.0 |
| 20260507101713 | 13 | 0 | 1.6 | 0.0 | 0.00 | 0.00 | 0.00 | 79 | 1016.0 |
| 20260507100208 | 12 | 0 | 0.0 | 0.0 | 0.00 | 0.00 | 0.00 | 80 | 1016.0 |
| 20260507094703 | 12 | 0 | 1.6 | 0.0 | 0.00 | 0.00 | 0.00 | 82 | 1016.0 |
| 20260507093158 | 13 | 0 | 0.0 | 0.0 | 0.00 | 0.00 | 0.00 | 82 | 1016.0 |
| 20260507091653 | 12 | 0 | 1.6 | 0.0 | 0.00 | 0.00 | 0.00 | 82 | 1016.0 |
| 20260507090147 | 12 | 0 | 1.6 | 0.0 | 0.00 | 0.00 | 0.00 | 87 | 1016.0 |
| 20260507084642 | 12 | 0 | 0.0 | 0.0 | 0.00 | 0.00 | 0.00 | 91 | 1016.0 |
| 20260507083137 | 11 | 0 | 0.0 | 0.0 | 0.00 | 0.00 | 0.00 | 10 | 1016.0 |
| 20260507081632 | 11 | 0 | 0.0 | 0.0 | 0.00 | 0.00 | 0.00 | 10 | 1016.0 |
| 20260507080126 | 10 | 0 | 1.6 | 0.0 | 0.00 | 0.00 | 0.00 | 10 | 1016.0 |
| 20260507074621 | 10 | 0 | 0.0 | 0.0 | 0.00 | 0.00 | 0.00 | 10 | 1016.0 |
| 20260507073116 | 10 | 0 | 0.0 | 0.0 | 0.00 | 0.00 | 0.00 | 10 | 1016.0 |
| 20260507071611 | 10 | 0 | 0.0 | 0.0 | 0.00 | 0.00 | 0.00 | 10 | 1016.0 |
| 20260507070105 | 10 | 0 | 0.0 | 0.0 | 0.00 | 0.00 | 0.00 | 10 | 1016.0 |
| 20260507064600 | 10 | 0 | 1.6 | 0.0 | 0.00 | 0.00 | 0.00 | 10 | 1015.0 |
| 20260507063055 | 10 | 0 | 0.0 | 0.0 | 0.00 | 0.00 | 0.00 | 10 | 1015.0 |
| 20260507061550 | 10 | 0 | 0.0 | 0.0 | 0.00 | 0.00 | 0.00 | 10 | 1015.0 |
| 20260507060044 | 9 | 0 | 0.0 | 0.0 | 0.00 | 0.00 | 0.00 | 10 | 1015.0 |
| 20260507054539 | 9 | 0 | 3.2 | 0.0 | 0.00 | 0.00 | 0.00 | 10 | 1015.0 |
| 20260507053034 | 8 | 0 | 0.0 | 0.0 | 0.00 | 0.00 | 0.00 | 10 | 1015.0 |
| 20260507050024 | 8 | 0 | 0.0 | 0.0 | 0.00 | 0.00 | 0.00 | 10 | 1015.0 |
| 20260507044518 | 8 | 0 | 0.0 | 0.0 | 0.00 | 0.00 | 0.00 | 10 | 1015.0 |
| 20260507043013 | 8 | 0 | 0.0 | 0.0 | 0.00 | 0.00 | 0.00 | 10 | 1014.0 |
| 20260507041508 | 8 | 0 | 0.0 | 0.0 | 0.00 | 0.00 | 0.00 | 10 | 1014.0 |
| 20260507040003 | 8 | 0 | 0.0 | 0.0 | 0.00 | 0.00 | 0.00 | 10 | 1014.0 |
| 20260507034457 | 8 | 0 | 0.0 | 0.0 | 0.00 | 0.00 | 0.00 | 10 | 1014.0 |
| 20260507032952 | 8 | 0 | 0.0 | 0.0 | 0.00 | 0.00 | 0.00 | 10 | 1014.0 |
| 20260507025942 | 8 | 0 | 1.6 | 0.0 | 0.00 | 0.00 | 0.00 | 10 | 1014.0 |
| 20260507024436 | 8 | 0 | 0.0 | 0.0 | 0.00 | 0.00 | 0.00 | 10 | 1014.0 |
| 20260507022931 | 8 | 0 | 0.0 | 0.0 | 0.00 | 0.00 | 0.00 | 10 | 1014.0 |
| 20260507021426 | 8 | 0 | 0.0 | 0.0 | 0.00 | 0.00 | 0.00 | 10 | 1014.0 |
| 20260507015921 | 8 | 0 | 0.0 | 0.0 | 0.00 | 0.00 | 0.00 | 10 | 1014.0 |
| 20260507014415 | 8 | 0 | 0.0 | 0.0 | 0.00 | 0.00 | 0.00 | 10 | 1014.0 |
| 20260507012910 | 8 | 0 | 0.0 | 0.0 | 0.00 | 0.00 | 0.00 | 10 | 1013.0 |
| 20260507011405 | 8 | 0 | 0.0 | 0.0 | 0.00 | 0.00 | 0.00 | 10 | 1013.0 |
| 20260507005900 | 8 | 0 | 0.0 | 0.0 | 0.00 | 0.00 | 0.00 | 10 | 1013.0 |
| 20260507004354 | 7 | 0 | 0.0 | 0.0 | 0.00 | 0.00 | 0.00 | 10 | 1013.0 |
| 20260507002849 | 7 | 0 | 0.0 | 0.0 | 0.00 | 0.00 | 0.00 | 10 | 1013.0 |
| 20260507001344 | 7 | 0 | 0.0 | 0.0 | 0.00 | 0.00 | 0.00 | 10 | 1013.0 |
| 20260506235839 | 7 | 0 | 0.0 | 0.0 | 0.00 | 0.00 | 0.00 | 10 | 1013.0 |
| 20260506234334 | 7 | 0 | 0.0 | 0.0 | 0.00 | 0.00 | 0.00 | 10 | 1013.0 |
| 20260506232828 | 7 | 0 | 0.0 | 0.0 | 0.00 | 0.00 | 0.00 | 10 | 1013.0 |
| 20260506231323 | 8 | 0 | 0.0 | 0.0 | 0.00 | 0.00 | 0.00 | 10 | 1013.0 |
| 20260506225818 | 8 | 0 | 0.0 | 0.0 | 0.00 | 0.00 | 0.00 | 10 | 1013.0 |
| 20260506224313 | 8 | 0 | 0.0 | 0.0 | 0.00 | 0.00 | 0.00 | 10 | 1013.0 |
| 20260506222807 | 8 | 0 | 0.0 | 0.0 | 0.00 | 0.00 | 0.00 | 10 | 1013.0 |
| 20260506221302 | 8 | 0 | 0.0 | 0.0 | 0.00 | 0.00 | 0.00 | 10 | 1013.0 |
| 20260506215757 | 8 | 0 | 0.0 | 0.0 | 0.00 | 0.00 | 0.00 | 10 | 1013.0 |
| 20260506214252 | 8 | 0 | 0.0 | 0.0 | 0.00 | 0.00 | 0.00 | 10 | 1013.0 |
| 20260506212746 | 8 | 0 | 0.0 | 0.0 | 0.00 | 0.00 | 0.00 | 10 | 1013.0 |
| 20260506211241 | 8 | 0 | 0.0 | 0.0 | 0.00 | 0.00 | 0.00 | 10 | 1013.0 |
| 20260506205736 | 8 | 0 | 0.0 | 0.0 | 0.00 | 0.00 | 0.00 | 10 | 1013.0 |
| 20260506204231 | 9 | 0 | 0.0 | 0.0 | 0.00 | 0.00 | 0.00 | 10 | 1013.0 |
| 20260506202725 | 9 | 0 | 0.0 | 0.0 | 0.00 | 0.00 | 0.00 | 10 | 1013.0 |
| 20260506201220 | 9 | 0 | 0.0 | 0.0 | 0.00 | 0.00 | 0.00 | 10 | 1013.0 |
| 20260506195715 | 10 | 0 | 0.0 | 0.0 | 0.00 | 0.00 | 0.00 | 96 | 1012.0 |
| 20260506194210 | 10 | 0 | 0.0 | 0.0 | 0.00 | 0.00 | 0.00 | 97 | 1012.0 |
| 20260506192704 | 10 | 0 | 0.0 | 0.0 | 0.00 | 0.00 | 0.00 | 97 | 1012.0 |
| 20260506191159 | 10 | 0 | 4.8 | 0.0 | 0.00 | 0.00 | 0.00 | 96 | 1012.0 |